Location: Vancouver
(49.2500°N, 123.1330°W)
Time: 06:35:33
(UTC-07:00)

deb Explorer IX - Visible Passes

Search period start: 01 July 2016 00:00
Search period end: 11 July 2016 00:00
Orbit: 550 x 1131 km, 38.8° (Epoch: 29 June)

Date Brightness Start Highest point End Pass type
(mag) Time Alt. Az. Time Alt. Az. Time Alt. Az.
01 Jul ? 01:40:02 10° WSW 01:46:23 32° SSW 01:52:17 10° SE visible
01 Jul ? 03:28:41 10° WSW 03:32:48 16° SSW 03:36:39 10° S visible
01 Jul ? 23:35:17 10° WSW 23:41:58 36° S 23:48:27 10° ESE visible
02 Jul ? 01:22:33 10° WSW 01:28:54 31° SSW 01:31:48 23° SSE visible
02 Jul ? 03:11:17 10° WSW 03:13:17 14° SW 03:13:17 14° SW visible
02 Jul ? 23:17:48 10° WSW 23:24:28 37° S 23:31:02 10° ESE visible
03 Jul ? 01:05:04 10° WSW 01:11:24 31° SSW 01:13:22 27° S visible
03 Jul ? 02:53:54 10° WSW 02:54:56 12° WSW 02:54:56 12° WSW visible
03 Jul ? 23:00:19 10° WSW 23:06:57 37° S 23:13:35 10° ESE visible
04 Jul ? 00:47:35 10° WSW 00:53:53 30° SSW 00:55:41 27° S visible
04 Jul ? 02:36:32 10° WSW 02:37:18 12° WSW 02:37:18 12° WSW visible
04 Jul ? 22:42:52 10° WSW 22:49:27 37° S 22:56:08 10° ESE visible
05 Jul ? 00:30:07 10° WSW 00:36:23 30° SSW 00:38:16 26° S visible
05 Jul ? 02:19:13 10° WSW 02:19:54 11° WSW 02:19:54 11° WSW visible
05 Jul ? 22:25:25 10° WSW 22:31:57 37° S 22:38:38 10° ESE visible
06 Jul ? 00:12:41 10° WSW 00:18:52 29° SSW 00:21:00 25° S visible
06 Jul ? 02:01:55 10° WSW 02:02:37 11° WSW 02:02:37 11° WSW visible
06 Jul ? 22:07:59 10° WSW 22:14:26 37° S 22:21:08 10° ESE visible
06 Jul ? 23:55:15 10° WSW 00:01:20 28° SSW 00:03:49 23° S visible
07 Jul ? 01:44:41 10° WSW 01:45:26 11° SW 01:45:26 11° SW visible
07 Jul ? 21:50:34 10° WSW 21:56:56 36° S 22:03:36 10° ESE visible
07 Jul ? 23:37:51 10° WSW 23:43:49 27° SSW 23:46:41 21° SSE visible
08 Jul ? 01:27:33 10° WSW 01:28:20 11° SW 01:28:20 11° SW visible
08 Jul ? 23:20:28 10° WSW 23:26:18 26° SSW 23:29:37 19° SSE visible
09 Jul ? 01:10:33 10° SW 01:11:16 11° SW 01:11:16 11° SW visible
09 Jul ? 23:03:06 10° WSW 23:08:46 25° SSW 23:12:36 17° SSE visible
10 Jul ? 00:53:50 10° SW 00:54:15 10° SW 00:54:15 10° SW visible
10 Jul ? 22:45:45 10° WSW 22:51:15 24° SSW 22:55:38 14° SSE visible
